Time,TemperatureF,DewpointF,PressureIn,WindDirection,WindDirectionDegrees,WindSpeedMPH,WindSpeedGustMPH,Humidity,HourlyPrecipIn,Conditions,Clouds,dailyrainin,SolarRadiationWatts/m^2,SoftwareType,DateUTC
2013-05-17 00:02:00,52.2,47.8,30.12,SW,234,4.0,8.0,85,0.00,,,0.00,0.0,meteohub,2013-05-17 07:02:00,
2013-05-17 00:07:00,52.0,47.7,30.12,WSW,242,3.0,8.0,85,0.00,,,0.00,0.0,meteohub,2013-05-17 07:07:00,
2013-05-17 00:12:00,52.0,47.7,30.12,SW,214,1.0,7.0,85,0.00,,,0.00,0.0,meteohub,2013-05-17 07:12:00,
2013-05-17 00:17:00,52.0,47.8,30.12,SW,227,0.0,7.0,86,0.00,,,0.00,0.0,meteohub,2013-05-17 07:17:00,
2013-05-17 00:22:00,52.0,47.8,30.12,SW,223,1.0,7.0,86,0.00,,,0.00,0.0,meteohub,2013-05-17 07:22:00,
2013-05-17 00:27:00,51.8,47.7,30.12,WSW,248,2.0,6.0,86,0.00,,,0.00,0.0,meteohub,2013-05-17 07:27:00,
2013-05-17 00:32:00,51.6,47.5,30.12,West,269,2.0,6.0,86,0.00,,,0.00,0.0,meteohub,2013-05-17 07:32:00,
2013-05-17 00:37:00,51.6,47.5,30.12,West,261,1.0,6.0,86,0.00,,,0.00,0.0,meteohub,2013-05-17 07:37:00,
2013-05-17 00:42:00,51.6,47.5,30.12,WSW,240,0.0,4.0,86,0.00,,,0.00,0.0,meteohub,2013-05-17 07:42:00,
2013-05-17 00:47:00,51.4,47.5,30.12,SW,232,5.0,5.0,86,0.00,,,0.00,0.0,meteohub,2013-05-17 07:47:00,
2013-05-17 00:52:00,51.4,47.1,30.12,WSW,246,5.0,5.0,85,0.00,,,0.00,0.0,meteohub,2013-05-17 07:52:00,
2013-05-17 00:57:00,51.6,47.3,30.12,WSW,242,4.0,8.0,85,0.00,,,0.00,0.0,meteohub,2013-05-17 07:57:00,
2013-05-17 01:02:00,51.6,46.9,30.12,SW,227,7.0,8.0,84,0.00,,,0.00,0.0,meteohub,2013-05-17 08:02:00,
2013-05-17 01:07:00,52.0,47.3,30.12,SW,224,7.0,8.0,84,0.00,,,0.00,0.0,meteohub,2013-05-17 08:07:00,
2013-05-17 01:12:00,52.0,47.3,30.12,SW,235,6.0,11.0,84,0.00,,,0.00,0.0,meteohub,2013-05-17 08:12:00,
2013-05-17 01:17:00,52.0,46.9,30.12,WSW,247,7.0,11.0,83,0.00,,,0.00,0.0,meteohub,2013-05-17 08:17:00,
2013-05-17 01:22:00,52.2,47.1,30.12,SSW,204,7.0,11.0,83,0.00,,,0.00,0.0,meteohub,2013-05-17 08:22:00,
2013-05-17 01:27:00,52.2,46.8,30.12,WSW,244,8.0,10.0,82,0.00,,,0.00,0.0,meteohub,2013-05-17 08:27:00,
2013-05-17 01:32:00,52.2,46.2,30.11,WSW,247,3.0,12.0,80,0.00,,,0.00,0.0,meteohub,2013-05-17 08:32:00,
2013-05-17 01:37:00,52.3,46.0,30.11,SW,222,8.0,12.0,79,0.00,,,0.00,0.0,meteohub,2013-05-17 08:37:00,
2013-05-17 01:42:00,52.3,46.4,30.11,SW,228,4.0,12.0,80,0.00,,,0.00,0.0,meteohub,2013-05-17 08:42:00,
2013-05-17 01:47:00,52.3,46.8,30.11,WSW,250,4.0,11.0,81,0.00,,,0.00,0.0,meteohub,2013-05-17 08:47:00,
2013-05-17 01:52:00,52.2,46.8,30.11,WSW,242,2.0,11.0,82,0.00,,,0.00,0.0,meteohub,2013-05-17 08:52:00,
2013-05-17 01:57:00,52.0,46.9,30.11,WSW,252,2.0,9.0,83,0.00,,,0.00,0.0,meteohub,2013-05-17 08:57:00,
2013-05-17 02:02:00,52.0,46.9,30.12,SW,236,2.0,8.0,83,0.00,,,0.00,0.0,meteohub,2013-05-17 09:02:00,
2013-05-17 02:07:00,51.8,46.8,30.12,West,272,0.0,5.0,83,0.00,,,0.00,0.0,meteohub,2013-05-17 09:07:00,
2013-05-17 02:12:00,51.6,46.9,30.11,West,260,3.0,5.0,84,0.00,,,0.00,0.0,meteohub,2013-05-17 09:12:00,
2013-05-17 02:17:00,51.4,47.1,30.11,West,267,3.0,5.0,85,0.00,,,0.00,0.0,meteohub,2013-05-17 09:17:00,
2013-05-17 02:22:00,51.4,47.5,30.11,SSW,211,2.0,6.0,86,0.00,,,0.00,0.0,meteohub,2013-05-17 09:22:00,
2013-05-17 02:27:00,51.3,47.3,30.11,WSW,252,2.0,7.0,86,0.00,,,0.00,0.0,meteohub,2013-05-17 09:27:00,